{"data":{"norad_id":66071,"intl_designator":"2025-235P","name":"STARLINK-35323","alt_names":[],"object_type":"PAYLOAD","status":"ACTIVE","operator":null,"country":"US","launch_date":"2025-10-19","launch_site_code":"AFETR","launch_vehicle":null,"mission":null,"orbit_class":"UNKNOWN","rcs_meters":null,"size_class":null,"mass_kg":null,"dimensions":null,"purposes":["comms"],"wikipedia_slug":null,"has_3d_model":false,"image_url":null,"decayed_at":null,"tle_current":{"epoch":"2026-09-20T13:53:49.512192Z","epoch_age_seconds":96162,"freshness":"FRESH","line1":"1 66071U 25235P   26263.57904528  .00022895  00000+0  68645-3 0  9993","line2":"2 66071  53.1601  59.0523 0000872  67.3043 292.8052 15.34410098 52776","mean_motion":15.34410098,"eccentricity":8.72e-5,"inclination_deg":53.1601,"raan_deg":59.0523,"arg_perigee_deg":67.3043,"mean_anomaly_deg":292.8052,"bstar":0.00068645,"rev_number":5277,"period_min":93.847140466355,"perigee_km":462.07670833585,"apogee_km":463.26974563944,"semimajor_km":6840.8102269876,"source":"CELESTRAK","updated_at":"2026-09-21T09:00:35.796425Z"}}}